This is the latest recevied weather packets stored in our database for station/object KM5R. If no packets are shown the sender has not sent any weather packets the latest 10 day(s).
| Time | Temp. | Humidity | Pressure | Rain* | Wind** | Luminosity | Snow |
|---|---|---|---|---|---|---|---|
| 1777858373 | 20° C | 50% | 1018.1 hPa | 0 mm | - | 0 W/m² | - |
| 1777858069 | 20° C | 49% | 1017.8 hPa | 0 mm | - | 1 W/m² | - |
| 1777857767 | 20° C | 49% | 1017.6 hPa | 0 mm | - | 1 W/m² | - |
| 1777857464 | 20.56° C | 48% | 1018.1 hPa | 0 mm | - | 1 W/m² | - |
| 1777857161 | 20.56° C | 47% | 1017.8 hPa | 0 mm | - | 2 W/m² | - |
| 1777856857 | 21.11° C | 46% | 1017.8 hPa | 0 mm | - | 4 W/m² | - |
| 1777856552 | 21.11° C | 45% | 1017.8 hPa | 0 mm | - | 7 W/m² | - |
| 1777856250 | 21.67° C | 45% | 1017.9 hPa | 0 mm | - | 10 W/m² | - |
| 1777855947 | 21.67° C | 44% | 1017.9 hPa | 0 mm | - | 13 W/m² | - |
| 1777855644 | 22.22° C | 43% | 1017.9 hPa | 0 mm | - | 17 W/m² | - |
| 1777855341 | 22.22° C | 43% | 1018.2 hPa | 0 mm | - | 23 W/m² | - |
| 1777855038 | 22.22° C | 42% | 1018.1 hPa | 0 mm | - | 28 W/m² | - |
| 1777854735 | 22.78° C | 41% | 1018.1 hPa | 0 mm | - | 36 W/m² | - |
| 1777854431 | 22.78° C | 39% | 1017.9 hPa | 0 mm | - | 47 W/m² | - |
| 1777854128 | 22.78° C | 39% | 1018.1 hPa | 0 mm | - | 55 W/m² | - |
| 1777853826 | 23.33° C | 38% | 1017.9 hPa | 0 mm | - | 57 W/m² | - |
| 1777853522 | 23.33° C | 37% | 1018.1 hPa | 0 mm | - | 58 W/m² | - |
| 1777853219 | 23.33° C | 37% | 1018.1 hPa | 0 mm | - | 66 W/m² | - |
| 1777852916 | 23.33° C | 37% | 1018.1 hPa | 0 mm | - | 68 W/m² | - |
| 1777852615 | 23.33° C | 36% | 1018.3 hPa | 0 mm | - | 60 W/m² | - |
| 1777852311 | 23.89° C | 35% | 1018.1 hPa | 0 mm | - | 55 W/m² | - |
| 1777852009 | 24.44° C | 34% | 1018.2 hPa | 0 mm | - | 79 W/m² | - |
| 1777851707 | 24.44° C | 35% | 1018.4 hPa | 0 mm | - | 159 W/m² | - |
| 1777851404 | 24.44° C | 35% | 1018.3 hPa | 0 mm | - | 164 W/m² | - |
| 1777851099 | 24.44° C | 34% | 1018.2 hPa | 0 mm | - | 167 W/m² | - |
* Rain latest hour (hover to see other rain measurements)
** Current wind speed in m/s (hover to see current wind gust speed)